Temp
-2 -1 -0 1 1 1 1 0 0 1 1 1 1 1 0 1 1 1 0 1 -0 -1 0 1 2 3 4 6 7 4 6 4 3 8 7 5 5 6 7 8 7 8 8 9 9 9 9 9 10 10 10 9 10 11
-2 -2 -1 -1 -0 0 0 1 0 1 1 1 1 1 1 0 1 1 -0 0 0 -1 -1 0 1 1 2 3 2 3 4 4 7 6 5 5 4 4 6 8 6 8 8 8 8 9 9 9 10 11 10 10 9 10
-1 -2 -2 -2 -1 -1 -0 -0 -0 0 1 1 0 0 0 0 1 0 0 -0 -1 -1 -1 -1 1 2 2 2 2 1 2 2 3 2 4 4 5 4 6 6 5 5 7 6 7 7 6 8 10 9 9 9 9 9
-1 -1 -1 -2 -2 -1 -0 -0 -0 -0 0 0 0 -0 0 0 0 0 0 -0 -1 -1 -1 0 1 0 3 2 1 1 1 1 1 1 0 1 3 3 4 5 6 6 6 7 6 6 6 8 8 8 8 8 9 9
-1 -1 -1 -1 -2 -2 -1 -0 -0 -1 -0 -0 -0 -0 -0 0 0 0 0 0 0 1 -1 -0 0 1 1 2 2 1 1 1 -0 0 0 1 0 1 1 2 3 4 5 6 6 6 6 7 8 8 8 7 8 8
-1 -1 -1 -1 -1 -2 -1 -1 -0 -0 -0 -0 -0 -0 -0 -0 0 0 -0 -0 -0 0 -1 -2 0 0 1 0 1 1 1 1 0 -0 0 -0 1 2 2 3 3 5 7 8 6 7 8 7 7 8 7 7 6 6
-1 -1 -1 -1 -1 -1 -1 -1 -0 0 0 -0 -0 -0 -0 -1 -1 -0 -0 -0 -0 -1 -1 -2 -4 -2 -1 -0 -0 1 1 -0 0 -0 -0 0 0 1 2 3 4 6 7 7 7 7 5 6 5 5 6 4 4 3
-1 -0 -0 -0 -0 -1 -1 -1 -0 0 -0 -0 -0 -0 -1 -1 -0 -1 0 1 -0 -0 -1 -0 -4 -2 -1 -1 -0 -0 -0 -0 -1 -0 -1 0 0 0 2 3 4 5 6 6 6 6 6 5 4 3 3 2 2 1
-1 -0 1 0 -0 -1 -1 -1 0 -0 -0 -0 -0 -1 -1 -1 -1 -1 -1 -1 -1 -0 -1 -1 -2 -3 -1 -1 -1 -1 -1 -0 -1 -0 -0 -0 0 1 2 2 3 4 4 5 5 4 4 4 2 1 1 -0 -0 -0
-1 -1 -0 -0 -1 -1 -1 -1 -1 -1 -1 -1 -1 -1 -2 -1 -1 0 -1 -1 -1 -1 -1 -2 -1 -1 -1 -1 -1 -1 -2 -0 -0 -1 -1 0 0 2 4 4 5 5 4 4 1 0 0 -1 0 -0 -0 -0 0 1
-1 -2 -1 -1 -1 -1 -1 -1 -1 -1 -1 -1 -2 -3 -2 -1 -1 -1 -2 -1 -2 -2 -2 -2 -1 -1 -1 -1 -1 -2 -1 -2 -1 -1 -1 -1 -0 0 3 4 4 3 3 3 3 2 0 0 -0 -0 -0 0 -0 -1
-1 -1 -1 -1 -1 -1 -0 -1 -1 -1 -0 -0 -0 -2 -1 -2 -2 -3 -3 -2 -2 -0 -2 -2 -2 -1 -2 -2 -2 -2 -2 -2 -2 -3 -4 -3 -2 1 2 2 2 2 2 2 2 1 0 0 0 0 -1 -1 -1 -1
-1 -1 -1 -1 -1 -0 -0 -1 1 1 1 1 0 -2 -2 -3 -5 -1 -2 -1 -2 -2 -2 -2 -2 -2 -2 -2 -3 -3 -3 -4 -2 -4 -3 -2 -2 -0 -0 -1 -0 1 1 1 0 -0 -0 -0 -0 -0 -1 -2 -2 -3
-1 -1 -1 -1 -1 -1 -0 -1 1 1 1 1 -2 -4 -5 -4 -4 -2 -1 -1 -2 -2 -2 -2 -3 -2 -3 -3 -3 -2 -1 -2 -2 -5 -2 -4 -1 -1 -1 -1 0 -1 -1 -1 -1 -2 -2 -2 -2 -2 -3 -3 -4 -4
-1 -1 -1 -1 -2 -2 -1 -0 1 1 2 1 -1 -4 -4 -3 -3 -3 -2 -2 -2 -2 -1 -2 -3 -2 -4 -2 -2 -1 -2 -2 -1 -1 -3 -3 -2 -1 -2 -2 -1 -1 -1 -2 -2 -3 -3 -4 -4 -4 -4 -5 -5 -5
-0 -1 -1 -0 0 0 1 1 1 1 1 1 -1 -4 -3 -2 -2 -2 -2 -2 -1 -1 -1 -1 -3 -2 -2 -1 -1 -2 -0 -1 -2 -3 -3 -2 -2 -2 -2 -2 -2 -2 -2 -3 -3 -4 -5 -5 -5 -5 -5 -5 -5 -5
-1 -0 -1 0 1 1 1 1 1 1 0 -0 -4 -2 -2 -3 -3 -1 -1 -2 -1 -1 -4 -2 -2 -1 -3 -2 -1 -1 -3 -3 -2 -3 -3 -2 -2 -2 -2 -2 -3 -3 -3 -4 -4 -4 -5 -5 -5 -5 -6 -6 -6 -7
-1 -1 -1 -0 0 1 1 1 1 0 -1 -1 -4 -2 -2 -2 -3 -2 -2 -2 -2 -2 -1 -1 -1 -1 -3 -1 -3 -5 -3 -4 -4 -3 -3 -3 -2 -3 -3 -3 -3 -3 -4 -4 -5 -5 -5 -6 -6 -6 -7 -7 -8 -8
-1 -1 -1 -0 -0 1 1 0 0 -3 -2 -1 -2 -2 -2 -2 -2 -2 -2 -2 -1 -1 -1 -2 -1 -2 -3 -4 -5 -4 -3 -4 -4 -4 -3 -3 -2 -2 -3 -3 -3 -4 -4 -5 -6 -6 -6 -7 -7 -8 -8 -9 -9 -9
-2 -2 -1 -1 0 1 0 -0 -0 -1 -2 -2 -2 -2 -2 -2 -2 -2 -2 -2 -1 -2 -4 -4 -4 -4 -3 -4 -2 -1 -2 -1 -2 -4 -4 -3 -3 -3 -3 -3 -4 -5 -5 -6 -7 -7 -7 -8 -9 -9 -9 -10 -10 -10
-2 -2 -1 -1 -1 -0 -0 -1 -1 -1 -2 -2 -3 -2 -3 -2 -2 -1 -2 -2 -2 -5 -6 -3 -2 -1 -1 -1 -1 -1 -1 -1 -1 -1 -2 -4 -3 -4 -4 -5 -5 -6 -6 -7 -7 -8 -9 -9 -9 -10 -10 -11 -11 -11
-3 -2 -1 -1 -1 -1 -1 -1 -1 -1 -2 -2 -3 -2 -4 -6 -5 -1 -2 -2 -4 -0 -1 -0 -0 -0 -0 0 -0 -1 -0 -1 -1 -1 -2 -3 -4 -4 -5 -5 -6 -7 -8 -8 -9 -9 -9 -10 -10 -11 -11 -11 -11 -11
-3 -3 -2 -2 -2 -3 -3 -2 -2 -2 -3 -3 -3 -3 -5 -6 -3 -2 -7 -3 -1 -1 -0 -1 -1 -1 -1 -1 -1 -1 -1 -1 -2 -2 -3 -3 -4 -5 -6 -6 -7 -7 -8 -9 -9 -10 -10 -11 -11 -12 -12 -11 -11 -12
-4 -3 -3 -3 -4 -10 -4 -5 -2 -3 -3 -2 -3 -4 -4 -6 -3 -4 -4 -6 -2 -1 -2 -3 -4 -4 -3 -3 -2 -2 -2 -3 -2 -3 -4 -4 -5 -6 -7 -7 -8 -9 -9 -9 -10 -11 -11 -12 -12 -12 -12 -12 -13 -13
-4 -5 -5 -10 -6 -9 -9 -8 -6 -4 -7 -5 -5 -7 -6 -4 -6 -6 -6 -7 -5 -5 -5 -4 -5 -4 -3 -3 -3 -4 -4 -4 -4 -4 -5 -6 -6 -7 -8 -8 -9 -9 -10 -10 -11 -11 -12 -12 -13 -13 -13 -13 -13 -14
-8 -7 -8 -8 -11 -8 -7 -10 -11 -10 -8 -8 -7 -6 -5 -8 -8 -7 -6 -3 -5 -5 -5 -5 -5 -5 -4 -3 -3 -4 -5 -6 -5 -5 -6 -7 -7 -7 -8 -8 -9 -10 -10 -11 -12 -12 -12 -12 -13 -13 -13 -14 -14 -14
-9 -9 -5 -5 -4 -4 -8 -7 -4 -8 -10 -9 -8 -11 -10 -9 -9 -8 -3 -2 -3 -2 -4 -4 -2 -2 -2 -3 -4 -5 -6 -6 -6 -6 -7 -8 -9 -9 -9 -9 -9 -10 -11 -12 -12 -13 -13 -13 -14 -14 -14 -14 -14 -14
-6 -5 -7 -6 -5 -4 -9 -10 -10 -8 -8 -5 -7 -9 -8 -8 -8 -3 -3 -3 -3 -2 -3 -3 -3 -4 -4 -4 -5 -5 -6 -7 -7 -7 -7 -8 -9 -9 -9 -10 -10 -11 -12 -12 -13 -13 -13 -13 -14 -14 -14 -14 -15 -15
-6 -5 -5 -9 -10 -7 -7 -7 -7 -4 -3 -4 -8 -10 -10 -4 -4 -3 -3 -3 -3 -3 -3 -4 -4 -5 -5 -5 -5 -6 -6 -6 -6 -8 -8 -8 -9 -10 -10 -11 -11 -12 -12 -13 -13 -14 -14 -14 -14 -14 -15 -15 -15 -15
-7 -5 -9 -11 -8 -7 -6 -3 -3 -3 -3 -3 -3 -4 -5 -6 -4 -3 -3 -3 -3 -3 -2 -3 -3 -4 -4 -5 -6 -6 -7 -7 -7 -7 -8 -8 -9 -9 -10 -11 -12 -13 -13 -14 -14 -14 -15 -15 -15 -15 -15 -16 -16 -16
-5 -5 -9 -10 -10 -6 -5 -3 -3 -3 -3 -3 -3 -3 -5 -6 -4 -4 -4 -4 -4 -3 -3 -4 -4 -4 -4 -5 -5 -6 -7 -7 -8 -8 -8 -8 -9 -10 -11 -12 -13 -13 -14 -14 -15 -15 -15 -16 -16 -16 -16 -16 -17 -17
-6 -7 -11 -8 -6 -6 -6 -5 -4 -4 -4 -4 -5 -5 -6 -6 -5 -3 -3 -4 -4 -4 -4 -4 -4 -4 -5 -5 -5 -6 -6 -7 -8 -9 -9 -9 -10 -11 -11 -12 -13 -14 -15 -16 -16 -16 -16 -16 -16 -17 -17 -17 -17 -17
-7 -7 -9 -7 -7 -6 -6 -6 -7 -9 -7 -8 -6 -5 -5 -4 -6 -4 -3 -3 -3 -3 -3 -4 -5 -5 -5 -6 -7 -7 -8 -8 -9 -10 -10 -10 -11 -11 -12 -13 -14 -15 -15 -16 -16 -17 -17 -16 -16 -17 -17 -17 -18 -18
Height
1278 1274 1271 1269 1268 1268 1269 1272 1277 1279 1284 1290 1299 1307 1315 1325 1333 1337 1341 1351 1360 1363 1362 1361 1363 1362 1360 1361 1360 1366 1373 1371 1377 1373 1374 1383 1385 1380 1380 1374 1380 1386 1392 1388 1393 1391 1385 1375 1382 1382 1370 1368 1369 1370
1277 1273 1269 1267 1266 1267 1268 1268 1268 1271 1275 1280 1288 1296 1306 1317 1325 1334 1340 1345 1355 1361 1360 1360 1363 1362 1362 1363 1365 1363 1361 1362 1362 1364 1366 1368 1375 1376 1371 1370 1378 1377 1372 1378 1379 1368 1361 1359 1359 1363 1365 1368 1368 1371
1274 1270 1267 1264 1263 1262 1261 1261 1260 1263 1267 1272 1280 1289 1300 1310 1318 1329 1333 1343 1347 1355 1360 1360 1357 1359 1362 1363 1363 1366 1365 1363 1360 1362 1361 1361 1361 1365 1364 1365 1369 1370 1365 1367 1370 1357 1361 1362 1362 1361 1364 1367 1369 1369
1270 1265 1261 1259 1256 1256 1255 1256 1256 1259 1263 1269 1276 1284 1293 1302 1313 1325 1326 1337 1344 1348 1353 1352 1352 1353 1355 1359 1360 1362 1364 1364 1363 1364 1363 1361 1358 1357 1358 1355 1355 1357 1358 1355 1359 1354 1358 1357 1358 1359 1361 1363 1364 1366
1261 1257 1253 1251 1250 1249 1250 1251 1253 1256 1260 1265 1272 1280 1289 1298 1310 1321 1323 1332 1336 1346 1347 1351 1349 1348 1348 1349 1354 1357 1360 1363 1362 1365 1363 1362 1361 1362 1359 1358 1354 1348 1350 1354 1352 1350 1351 1352 1356 1357 1356 1358 1360 1361
1256 1251 1245 1243 1243 1243 1244 1246 1249 1253 1257 1262 1269 1277 1286 1296 1308 1315 1319 1327 1334 1340 1346 1348 1345 1343 1343 1344 1348 1354 1355 1358 1358 1359 1359 1359 1359 1360 1359 1355 1347 1345 1344 1345 1345 1345 1348 1349 1349 1349 1351 1355 1357 1361
1248 1240 1234 1231 1233 1236 1239 1242 1246 1251 1257 1263 1270 1278 1286 1295 1303 1305 1311 1317 1327 1338 1343 1345 1342 1340 1341 1344 1346 1348 1349 1351 1353 1355 1354 1357 1358 1357 1352 1350 1340 1338 1336 1342 1346 1345 1344 1342 1342 1344 1344 1349 1353 1359
1234 1221 1212 1211 1218 1227 1235 1240 1245 1251 1257 1263 1271 1278 1288 1297 1302 1308 1312 1315 1324 1335 1339 1339 1339 1341 1342 1344 1347 1346 1347 1347 1348 1348 1349 1348 1351 1348 1344 1337 1333 1333 1333 1334 1335 1338 1335 1337 1341 1346 1346 1346 1348 1354
1228 1211 1194 1194 1210 1224 1234 1241 1246 1252 1256 1266 1273 1282 1291 1297 1303 1308 1312 1318 1322 1330 1331 1334 1338 1342 1339 1340 1341 1343 1342 1341 1343 1344 1344 1346 1342 1337 1330 1327 1326 1321 1326 1324 1329 1328 1328 1330 1336 1343 1342 1347 1350 1354
1236 1224 1213 1213 1222 1231 1241 1246 1250 1257 1263 1270 1278 1286 1293 1298 1303 1312 1319 1319 1321 1327 1329 1330 1332 1335 1336 1336 1338 1340 1341 1340 1341 1343 1343 1341 1335 1322 1316 1317 1316 1315 1316 1321 1328 1331 1326 1326 1333 1338 1342 1347 1351 1351
1250 1242 1236 1235 1240 1246 1252 1257 1261 1266 1272 1277 1283 1291 1298 1302 1307 1312 1316 1317 1322 1326 1324 1324 1323 1327 1333 1334 1335 1339 1339 1342 1342 1341 1342 1342 1332 1313 1311 1309 1309 1311 1314 1318 1323 1324 1320 1323 1330 1337 1343 1346 1347 1350
1265 1261 1257 1255 1256 1259 1263 1267 1272 1276 1280 1283 1287 1297 1303 1306 1308 1313 1316 1319 1320 1318 1318 1319 1320 1321 1328 1332 1335 1338 1340 1344 1344 1343 1348 1339 1316 1307 1307 1306 1306 1308 1314 1319 1322 1321 1322 1326 1332 1336 1342 1344 1346 1349
1277 1274 1272 1271 1271 1272 1274 1278 1281 1282 1285 1288 1294 1300 1303 1308 1312 1308 1314 1313 1315 1313 1313 1316 1319 1322 1327 1331 1334 1336 1341 1348 1339 1344 1338 1318 1307 1306 1306 1308 1310 1313 1319 1322 1322 1322 1325 1328 1333 1339 1344 1347 1348 1350
1286 1284 1282 1281 1282 1283 1285 1286 1287 1289 1289 1290 1294 1303 1304 1308 1305 1302 1303 1304 1306 1308 1310 1314 1319 1323 1325 1329 1331 1333 1334 1337 1337 1345 1323 1311 1305 1306 1309 1312 1313 1316 1319 1320 1323 1326 1330 1334 1338 1341 1344 1347 1349 1351
1292 1290 1290 1289 1289 1290 1291 1292 1291 1290 1290 1290 1292 1302 1301 1298 1298 1299 1300 1303 1305 1308 1311 1316 1320 1322 1326 1328 1328 1330 1333 1332 1324 1315 1312 1306 1305 1307 1310 1314 1315 1317 1320 1323 1328 1331 1334 1338 1341 1343 1345 1348 1348 1350
1294 1295 1294 1293 1293 1293 1294 1294 1292 1291 1291 1292 1293 1296 1297 1298 1300 1301 1302 1303 1305 1308 1311 1314 1319 1322 1323 1322 1324 1326 1320 1318 1313 1310 1308 1308 1309 1310 1312 1315 1318 1321 1323 1326 1330 1333 1336 1340 1342 1344 1345 1346 1348 1349
1294 1294 1294 1294 1294 1295 1294 1294 1293 1292 1291 1291 1293 1292 1294 1294 1295 1298 1299 1301 1304 1307 1311 1312 1317 1315 1320 1320 1318 1315 1316 1310 1308 1308 1308 1310 1311 1313 1316 1318 1321 1324 1326 1329 1332 1336 1339 1341 1342 1344 1345 1347 1348 1348
1293 1292 1292 1292 1292 1294 1294 1295 1295 1294 1292 1292 1293 1292 1293 1294 1294 1296 1298 1299 1303 1305 1307 1308 1309 1313 1315 1312 1315 1309 1307 1308 1309 1309 1310 1312 1314 1316 1319 1322 1325 1327 1330 1333 1336 1338 1341 1342 1344 1344 1345 1346 1346 1345
1291 1290 1290 1290 1292 1294 1295 1295 1296 1295 1294 1293 1292 1292 1292 1293 1294 1295 1297 1300 1302 1303 1305 1306 1306 1307 1307 1304 1303 1303 1306 1307 1310 1312 1313 1316 1318 1320 1323 1325 1328 1331 1333 1335 1338 1339 1341 1342 1343 1343 1344 1343 1342 1341
1288 1288 1288 1289 1290 1292 1292 1293 1293 1292 1293 1292 1293 1293 1294 1294 1295 1295 1297 1300 1301 1303 1304 1305 1303 1301 1302 1301 1301 1301 1303 1306 1308 1312 1316 1318 1320 1322 1325 1327 1329 1332 1334 1336 1338 1339 1340 1341 1342 1341 1340 1339 1338 1336
1286 1286 1287 1287 1288 1289 1289 1289 1289 1290 1291 1292 1292 1293 1295 1296 1297 1298 1299 1301 1303 1300 1301 1299 1298 1299 1299 1299 1300 1302 1304 1307 1309 1311 1314 1318 1322 1324 1326 1329 1331 1333 1334 1336 1337 1339 1340 1340 1339 1338 1337 1336 1335 1335
1284 1284 1285 1286 1286 1286 1286 1286 1287 1289 1291 1291 1293 1294 1295 1297 1297 1298 1298 1299 1297 1294 1295 1295 1296 1297 1298 1300 1301 1304 1307 1309 1312 1314 1316 1319 1321 1324 1326 1328 1330 1332 1334 1336 1337 1338 1338 1338 1337 1336 1335 1334 1333 1332
1283 1283 1284 1284 1285 1284 1285 1284 1285 1287 1289 1291 1293 1293 1295 1295 1294 1296 1297 1294 1291 1290 1291 1293 1295 1297 1299 1300 1302 1305 1307 1310 1312 1315 1317 1319 1321 1324 1326 1328 1330 1332 1333 1335 1336 1336 1336 1336 1335 1334 1334 1332 1331 1331
1281 1281 1281 1280 1281 1284 1282 1282 1282 1284 1286 1289 1290 1292 1292 1293 1294 1294 1293 1287 1284 1285 1287 1290 1292 1295 1299 1301 1303 1305 1307 1309 1312 1315 1317 1319 1321 1323 1326 1328 1330 1331 1333 1334 1335 1335 1335 1334 1334 1334 1333 1332 1331 1330
1280 1279 1279 1280 1278 1282 1284 1284 1283 1283 1289 1287 1290 1293 1291 1291 1295 1295 1290 1281 1279 1281 1284 1287 1290 1293 1295 1298 1302 1304 1307 1309 1311 1313 1316 1319 1321 1323 1325 1327 1329 1330 1331 1332 1333 1333 1333 1333 1332 1332 1332 1331 1330 1330
1278 1272 1273 1272 1277 1278 1278 1286 1286 1286 1285 1288 1286 1285 1286 1292 1298 1293 1281 1273 1274 1277 1279 1282 1286 1290 1295 1298 1300 1303 1306 1309 1311 1314 1317 1319 1321 1322 1324 1325 1327 1328 1329 1330 1330 1331 1331 1331 1331 1332 1332 1331 1331 1330
1275 1270 1266 1267 1268 1269 1274 1273 1273 1277 1284 1285 1283 1288 1290 1297 1294 1278 1271 1271 1272 1273 1275 1279 1283 1288 1292 1297 1301 1303 1307 1310 1313 1315 1317 1319 1321 1322 1324 1325 1325 1327 1327 1327 1328 1328 1329 1329 1331 1332 1332 1332 1331 1331
1262 1262 1264 1264 1265 1266 1271 1274 1275 1275 1273 1271 1275 1283 1282 1281 1277 1269 1269 1270 1271 1272 1275 1280 1285 1289 1293 1296 1299 1302 1305 1309 1311 1314 1316 1318 1320 1321 1322 1323 1324 1324 1325 1326 1327 1327 1327 1328 1329 1331 1331 1331 1331 1331
1258 1258 1260 1264 1264 1264 1264 1266 1266 1263 1263 1265 1271 1274 1271 1268 1268 1268 1269 1270 1272 1274 1277 1280 1284 1288 1291 1295 1298 1302 1304 1306 1309 1311 1314 1316 1318 1320 1321 1322 1323 1324 1325 1325 1325 1326 1326 1327 1329 1330 1331 1331 1331 1331
1255 1255 1258 1261 1261 1261 1258 1258 1259 1260 1261 1263 1264 1265 1266 1267 1267 1268 1269 1271 1272 1275 1278 1280 1282 1286 1288 1292 1295 1300 1303 1306 1308 1310 1311 1313 1315 1317 1319 1320 1322 1323 1324 1324 1325 1326 1327 1328 1329 1330 1331 1331 1331 1332
1249 1252 1255 1256 1258 1256 1256 1257 1258 1260 1261 1262 1263 1265 1266 1266 1267 1268 1269 1271 1272 1275 1278 1281 1284 1287 1290 1292 1295 1298 1301 1304 1306 1307 1309 1311 1312 1315 1317 1319 1320 1322 1323 1324 1325 1326 1327 1328 1329 1330 1331 1332 1332 1332
1248 1249 1253 1257 1256 1256 1257 1257 1258 1259 1260 1261 1262 1263 1265 1266 1266 1267 1267 1269 1271 1273 1276 1280 1283 1286 1289 1293 1296 1299 1300 1303 1304 1306 1308 1310 1311 1313 1315 1317 1319 1320 1322 1323 1325 1326 1328 1329 1330 1331 1332 1332 1333 1333
1247 1248 1251 1252 1255 1256 1257 1258 1259 1260 1261 1260 1261 1261 1262 1263 1264 1263 1263 1266 1269 1272 1275 1279 1283 1286 1289 1292 1295 1297 1300 1302 1304 1306 1308 1310 1312 1313 1314 1316 1318 1319 1321 1323 1325 1326 1327 1329 1330 1331 1332 1333 1333 1334
Wind_Speed
18 15 14 15 17 19 20 25 30 34 39 42 42 41 41 40 38 39 37 39 28 6 6 7 7 1 4 5 9 4 5 4 1 10 7 4 5 7 3 3 8 11 8 8 7 9 14 16 7 11 3 4 5 7
20 19 14 13 14 18 21 22 26 29 34 41 42 41 41 39 38 40 24 32 29 16 6 12 25 19 12 5 5 2 4 2 9 4 3 3 3 3 6 6 3 6 8 6 9 6 1 21 7 17 2 2 4 8
24 20 19 16 15 15 17 18 20 22 27 31 39 40 41 40 39 41 31 23 29 18 10 16 22 19 31 23 17 2 3 5 4 3 2 2 4 4 6 5 4 5 4 4 3 6 7 8 16 10 4 6 8 10
29 24 21 17 17 15 15 17 16 21 25 31 36 39 39 39 38 41 32 29 30 9 3 5 10 21 24 17 18 18 19 17 5 4 1 1 2 4 3 1 7 5 8 9 4 6 5 10 15 10 11 22 22 18
33 27 24 21 17 15 14 15 17 19 24 29 33 36 39 40 38 40 37 32 27 16 3 4 9 13 16 17 21 21 17 16 6 2 2 2 1 1 1 2 3 4 5 5 4 7 3 3 14 20 24 24 19 21
30 32 28 22 17 16 17 14 18 20 19 25 29 32 34 34 36 38 12 29 35 27 4 1 3 5 7 13 16 21 24 17 9 5 3 4 6 3 1 2 6 12 15 17 4 7 13 16 18 14 25 20 18 19
36 31 29 27 24 19 12 14 18 19 24 22 24 27 31 31 35 20 9 9 38 25 5 1 3 1 3 8 11 15 13 4 9 5 4 4 8 9 2 4 7 9 16 20 19 17 7 15 10 18 25 26 24 20
38 37 30 23 21 21 13 16 17 21 22 24 28 26 28 29 26 18 7 10 36 23 7 2 2 1 10 6 4 10 8 9 8 5 4 3 6 5 4 11 23 24 26 23 27 23 24 17 16 22 26 25 20 18
37 33 17 8 21 23 22 17 15 21 25 26 30 28 29 27 9 18 22 32 30 8 5 3 4 4 11 5 5 6 7 3 6 2 2 5 2 4 9 13 23 25 19 20 19 20 19 22 25 24 20 17 17 12
33 30 29 28 28 28 27 23 27 29 32 31 33 11 5 13 21 21 11 5 5 5 4 3 6 4 9 5 2 2 1 0 2 2 5 2 3 24 27 26 24 18 16 16 20 18 23 21 23 20 16 8 8 11
31 29 30 32 36 34 30 27 31 32 31 18 5 6 32 21 7 4 4 3 3 2 6 8 10 5 6 2 2 3 1 1 1 2 3 2 4 5 10 17 25 23 17 21 27 26 26 26 16 12 14 16 13 11
26 27 29 32 31 30 28 27 29 26 13 7 21 19 10 4 3 4 2 3 2 3 4 3 3 5 7 4 2 4 2 2 4 4 2 3 4 10 12 14 12 16 15 19 15 17 15 14 17 23 21 17 14 11
23 24 23 23 23 24 27 27 18 22 31 18 7 4 3 2 5 3 4 3 3 3 6 5 3 4 5 5 2 2 3 4 3 2 4 5 3 4 4 6 15 21 18 16 14 11 11 14 14 17 16 12 10 10
15 19 23 24 23 23 21 24 24 8 2 2 4 2 3 2 3 3 3 3 3 7 12 13 4 3 3 2 2 3 2 2 3 3 5 3 5 7 8 16 22 18 12 12 11 14 15 17 17 15 11 10 9 8
10 13 16 17 19 19 12 6 4 3 1 2 3 2 3 2 3 2 4 6 4 17 19 8 5 3 1 3 2 2 3 4 5 4 3 3 7 13 16 18 17 13 18 19 16 14 12 11 11 11 9 7 5 3
6 7 11 14 16 15 10 1 6 5 1 1 2 2 3 3 3 4 7 6 13 20 11 5 3 2 2 2 4 6 3 5 3 2 2 4 8 11 17 15 17 19 17 15 11 10 13 11 9 8 6 3 2 3
7 7 7 11 8 9 10 6 5 3 3 2 1 2 4 2 4 6 10 10 20 16 2 3 4 4 2 2 3 4 4 2 1 2 4 7 11 15 18 19 17 14 12 11 11 10 10 9 6 4 2 2 3 5
2 2 4 6 11 10 7 3 3 3 2 2 0 2 4 3 8 6 7 17 12 9 6 3 5 4 4 4 3 3 3 2 4 6 9 11 14 16 15 16 14 12 13 13 11 10 7 4 3 1 1 2 4 7
6 3 3 4 12 10 5 4 4 3 4 2 2 3 1 2 3 10 12 21 8 8 3 2 2 3 3 2 3 4 7 6 9 13 15 15 14 14 14 14 13 11 10 10 8 6 4 2 2 2 5 8 11 14
6 6 4 6 11 6 3 3 4 3 2 4 4 5 4 3 6 9 14 16 3 1 1 2 3 3 4 4 4 7 13 17 21 18 14 13 12 12 11 10 10 10 9 8 6 4 2 1 4 7 10 14 16 14
5 5 4 8 7 7 4 4 4 3 4 2 7 5 3 6 4 4 5 8 6 3 2 4 5 5 5 3 7 12 15 17 18 15 19 17 12 10 10 9 8 8 7 6 4 3 1 4 7 10 12 8 7 9
3 3 5 8 4 5 4 5 3 6 4 4 6 5 3 1 1 4 5 3 3 5 6 5 7 6 7 8 9 12 13 14 14 7 11 12 16 14 12 10 10 10 7 5 2 1 3 6 9 8 6 7 9 9
5 3 4 6 4 4 3 8 4 6 3 3 4 3 1 1 4 8 0 5 6 9 12 11 11 11 9 10 12 14 14 13 12 9 9 11 10 11 11 10 7 7 7 4 3 3 4 6 6 5 7 8 5 3
6 3 4 4 5 3 3 2 4 4 3 3 3 2 2 2 7 1 3 3 7 10 14 16 16 16 14 12 13 13 13 13 11 9 8 10 13 13 10 8 8 6 4 3 3 2 4 4 4 3 5 6 4 5
3 4 4 4 4 3 2 1 0 2 3 3 3 1 2 4 2 2 3 3 12 15 16 17 20 22 22 18 14 12 10 10 11 13 13 10 12 12 12 10 10 7 5 4 3 3 2 4 2 2 4 5 4 4
3 5 6 6 2 4 5 4 5 5 3 2 4 2 3 3 2 5 3 5 9 17 20 23 23 23 20 15 14 13 12 11 11 13 14 9 7 5 7 8 9 8 7 6 4 3 3 3 1 0 3 3 3 4
4 4 4 7 5 4 1 1 3 3 4 5 4 3 3 3 6 4 3 5 5 9 17 22 21 20 18 17 12 11 13 14 10 9 12 12 8 5 3 3 5 6 6 6 5 4 5 3 4 2 1 3 4 3
7 5 5 6 4 5 4 1 4 6 4 5 6 3 8 8 5 2 3 6 3 10 13 14 14 14 12 14 14 18 19 16 13 10 12 12 9 7 5 4 5 5 5 4 4 2 3 4 5 4 3 1 2 2
4 4 8 2 0 2 4 4 4 5 7 10 5 3 3 4 3 5 5 10 11 17 21 21 19 17 19 18 17 15 14 14 14 15 14 12 10 8 7 5 5 5 3 1 1 1 3 6 8 5 2 1 1 2
4 11 3 1 4 4 3 7 2 8 8 6 6 4 3 2 4 5 8 11 14 19 19 20 23 24 24 23 22 19 16 12 9 7 8 9 9 8 8 7 6 4 2 2 3 4 6 6 5 4 3 2 2 3
9 10 3 2 3 1 3 7 9 7 8 6 5 4 4 4 5 7 9 9 12 17 20 22 22 21 19 20 19 19 19 16 14 12 8 8 9 9 9 8 6 3 3 4 4 5 6 7 7 6 6 5 5 4
7 5 4 3 1 2 4 2 5 4 4 5 4 4 5 3 3 9 13 15 15 16 18 19 21 19 16 15 15 14 10 12 13 10 9 9 9 10 9 7 5 5 6 6 5 6 6 7 6 6 5 4 4 4
4 4 4 3 2 3 3 2 2 2 1 0 3 6 8 8 5 8 12 20 18 15 15 16 14 12 15 16 16 14 10 11 13 13 12 11 9 8 7 6 5 6 7 7 6 5 6 6 7 5 5 3 2 3
Wind_Direction
344 320 295 281 269 268 264 254 248 245 240 234 232 230 225 221 220 216 222 240 235 227 263 233 269 304 347 217 225 158 144 213 90 216 203 177 201 206 193 174 165 183 188 211 224 238 246 170 164 193 204 153 171 195
351 345 304 280 272 262 260 260 251 245 238 228 225 223 219 217 215 212 206 225 227 217 243 245 245 246 259 260 15 305 347 196 198 201 174 142 173 171 171 217 192 203 195 181 200 213 289 185 193 202 170 211 235 233
344 340 336 302 277 273 269 256 249 238 224 223 219 215 212 211 209 209 202 191 189 202 239 242 251 251 245 248 259 264 309 337 8 28 177 176 201 163 175 213 170 238 173 221 112 223 219 250 240 247 260 288 304 270
337 326 317 310 298 269 271 254 241 226 220 216 217 210 207 204 204 202 193 195 182 149 195 248 250 236 235 245 252 263 261 275 304 320 342 230 232 194 202 192 208 189 160 206 244 251 336 272 243 239 268 294 268 241
334 328 317 302 290 280 254 246 230 221 218 213 213 206 206 198 196 199 199 202 202 191 157 211 240 243 240 228 240 252 241 233 209 197 219 226 206 210 267 327 221 186 175 186 221 184 147 310 287 268 260 234 229 205
330 322 314 300 282 277 242 237 220 211 203 199 197 199 199 190 188 189 176 201 207 204 166 235 269 258 258 227 227 228 224 215 196 185 186 207 190 151 263 239 256 221 233 240 217 236 256 261 273 251 212 201 184 173
327 316 300 282 262 253 248 217 205 198 191 187 187 189 186 179 186 186 154 179 193 189 164 247 294 288 194 210 217 218 189 187 192 197 211 183 204 191 219 204 239 222 237 242 245 263 234 230 216 195 190 168 165 149
334 324 307 270 240 221 209 190 192 191 189 187 179 175 169 172 180 178 165 160 177 173 169 182 257 182 175 173 200 191 192 189 211 206 182 193 174 197 234 235 248 249 249 259 261 257 249 227 188 170 163 161 162 164
356 357 1 161 169 167 160 159 170 176 187 166 164 152 154 168 150 132 129 157 164 157 160 184 168 208 180 185 168 180 196 174 181 214 212 178 180 219 221 221 234 240 232 244 251 227 199 186 169 170 171 171 163 176
25 41 73 106 130 137 134 127 142 139 136 139 138 114 99 131 130 164 138 169 131 179 191 193 160 174 183 161 132 120 310 216 191 233 167 239 256 241 242 243 247 254 251 230 165 155 163 156 167 161 163 179 207 226
47 64 83 103 119 125 125 125 127 131 134 123 65 68 127 126 93 114 137 126 117 166 212 193 175 138 184 159 133 190 141 84 251 244 176 248 257 254 272 260 257 240 239 226 216 196 173 162 165 183 192 207 216 203
60 75 93 109 118 125 129 133 136 129 119 96 124 125 115 118 93 105 119 107 185 223 188 161 154 112 135 148 124 163 146 143 232 143 143 246 252 264 275 277 261 223 204 200 195 174 164 182 208 211 207 187 183 188
77 78 91 104 116 124 124 117 122 128 117 108 98 116 174 230 65 128 170 179 195 184 188 158 113 116 119 176 103 131 126 215 119 183 230 236 246 273 237 195 149 147 141 147 146 159 185 181 177 179 174 178 180 184
89 101 109 109 107 112 121 130 116 117 68 125 137 121 141 204 239 182 166 159 172 163 153 131 108 153 148 111 153 134 164 134 234 223 238 249 250 186 164 158 146 137 141 134 146 149 147 151 154 157 166 174 184 195
50 131 119 114 114 118 121 102 26 8 54 92 108 180 193 181 74 73 127 117 124 149 144 108 71 98 113 113 173 148 173 237 220 235 239 308 166 160 163 154 142 154 152 143 148 148 149 149 152 150 152 162 169 193
139 97 148 151 152 156 148 231 7 17 51 104 105 89 142 137 156 158 159 139 150 149 121 88 117 124 169 177 179 206 217 217 243 223 255 187 168 172 166 161 154 147 141 143 146 145 137 137 137 137 144 167 249 269
172 208 215 227 215 218 227 301 340 348 11 25 350 31 173 147 172 166 162 163 168 158 125 140 151 192 119 190 219 198 212 220 275 280 172 171 166 159 150 145 145 145 141 140 136 137 143 147 150 158 196 239 262 276
156 184 214 224 217 217 202 225 304 318 320 292 98 209 191 165 151 158 158 165 163 163 156 173 142 190 188 195 238 236 170 124 110 130 135 146 150 150 148 146 144 140 137 138 142 145 153 165 175 185 247 287 298 301
309 263 203 184 186 186 198 206 203 204 232 266 245 189 132 132 157 172 169 169 148 156 168 186 193 197 216 222 215 161 165 150 136 125 123 130 139 145 147 148 148 153 158 155 157 152 142 115 62 353 322 312 311 312
295 270 257 190 191 185 195 192 197 184 195 209 186 149 133 113 131 141 162 185 166 171 195 190 205 215 192 249 230 200 163 154 141 131 130 140 147 150 153 160 164 164 163 160 152 140 119 44 334 322 319 318 318 324
288 250 218 180 188 197 198 186 182 186 157 169 156 131 101 131 131 156 153 178 193 207 227 208 221 249 261 194 147 165 164 168 172 168 164 154 163 169 161 158 165 168 172 164 160 154 313 327 328 328 326 327 334 332
250 282 197 193 210 195 199 194 175 157 153 159 150 145 125 114 219 194 177 190 231 229 204 211 201 190 173 161 168 176 180 181 181 155 159 170 175 184 188 185 180 175 168 166 179 291 325 332 334 337 347 333 317 320
258 222 199 202 210 211 205 170 159 166 136 178 151 121 226 204 202 165 228 223 235 217 218 208 196 192 186 179 179 183 189 195 190 174 170 178 189 189 184 179 182 183 182 196 215 292 320 336 343 351 348 345 354 22
203 222 216 213 196 218 166 184 171 131 111 166 176 180 183 173 163 182 242 235 211 202 201 189 185 173 171 168 171 177 180 179 190 194 203 193 176 168 169 172 175 181 185 197 217 272 323 335 337 342 354 1 347 335
176 226 193 243 187 92 96 76 166 109 163 170 123 286 212 154 131 232 236 255 198 200 192 180 186 189 187 182 179 181 186 201 205 190 168 175 172 170 176 181 184 196 208 217 237 278 298 322 306 325 352 355 8 14
212 214 164 190 226 163 184 154 189 183 138 139 198 116 124 111 124 242 231 210 198 197 187 183 185 191 196 204 196 200 193 176 177 174 166 165 165 170 180 194 202 208 224 239 249 251 280 302 195 289 14 33 42 48
225 249 206 204 183 167 70 40 140 116 159 170 175 144 112 165 231 248 230 228 216 225 204 195 193 192 193 189 184 182 178 174 180 176 168 159 161 172 185 203 213 222 227 234 245 268 277 240 187 179 110 45 37 50
216 192 176 182 182 178 146 131 158 189 200 174 121 172 177 193 229 179 177 166 141 149 158 168 165 171 183 186 183 172 171 175 176 175 177 186 197 208 218 219 212 207 213 237 256 237 212 198 182 175 170 48 24 36
214 194 161 154 94 173 192 177 207 221 169 167 158 197 230 208 208 176 168 163 152 158 158 160 162 164 162 161 163 170 178 182 182 181 193 196 196 200 198 185 175 174 184 226 193 149 142 150 155 165 181 130 93 49
231 179 116 128 155 206 225 197 193 164 176 173 163 146 160 180 174 184 178 175 174 178 180 176 169 170 170 171 171 174 180 184 190 209 210 215 208 200 192 184 179 178 188 194 155 142 151 155 156 157 144 130 109 97
159 170 95 110 209 229 173 175 160 157 161 178 183 180 163 179 182 173 168 171 178 187 186 181 181 184 187 186 186 182 183 190 200 213 219 191 184 176 176 175 175 178 188 174 151 136 145 142 135 131 124 108 101 90
176 161 133 127 147 130 126 171 161 170 169 173 165 165 170 168 226 197 194 183 183 189 195 198 194 193 196 201 196 189 194 199 206 203 189 171 164 163 166 169 178 177 167 162 159 154 147 150 133 128 130 109 85 90
125 117 97 103 131 156 172 128 62 40 42 54 215 205 205 197 221 213 203 203 206 203 195 191 191 193 184 180 186 194 193 186 184 180 171 162 160 158 163 172 173 167 163 160 163 183 198 186 167 160 163 156 133 131